{"data":{"norad_id":68984,"epoch":"2026-09-20T04:27:23.143392Z","epoch_age_seconds":46551,"freshness":"FRESH","line1":"1 68984U 26100E   26263.18568453  .00000929  00000+0  99884-4 0  9994","line2":"2 68984  97.7206 158.6200 0003585 169.9435 190.1856 14.90852705 20854","mean_motion":14.90852705,"eccentricity":0.0003585,"inclination_deg":97.7206,"raan_deg":158.62,"arg_perigee_deg":169.9435,"mean_anomaly_deg":190.1856,"bstar":9.9884e-5,"rev_number":2085,"period_min":96.589018832682,"perigee_km":592.77542998677,"apogee_km":597.77536667638,"semimajor_km":6973.4123983316,"source":"CELESTRAK","updated_at":"2026-09-20T09:00:24.598685Z"}}